Zurück zum Katalog

STARLINK-6251

AktivKommunikationVLEO
NORAD 57087·PAYLOAD·🇺🇸 United States

Gestartet Jun 22, 2023 von Vandenberg Space Force Base

Loading…

Nächste Überflüge (nächste 24 Stunden)

TLE

AktuellSource: CelesTrak SupGP

Epoche: Sep 14, 2026, 20:55 UTC

1 57087C 23088AR  26257.87201389 -.00115040  00000+0 -41665-2 0  2571
2 57087  43.0024 107.3803 0001620 268.9281 225.1218 15.27636706    14

Verfolge STARLINK-6251 in Echtzeit mit AllMySat

Download on the App Store